Location: Rounton
(54.4000°N, 1.3500°W)
Time: 13:57:21
(UTC+00:00)

Transit 4A - Pass Details

Date: 30 November 2021
Orbit: 864 x 981 km, 66.8° (Epoch: 20 January)

Event Time Altitude Azimuth Distance (km) Brightness Sun altitude
Rises 21:15:51 0° 226° (SW) 3,467 - -45.9°
Reaches altitude 10° 21:18:19 10° 228° (SW) 2,544 - -46.2°
Maximum altitude 21:24:12 76° 314° (NW) 934 - -46.9°
Drops below altitude 10° 21:30:20 10° 41° (NE) 2,634 - -47.7°
Sets 21:32:55 0° 43° (NE) 3,599 - -48.0°
